| time (UTC) | temp F | wind direction | speed knots | gust knots | rain 1hr in | rain 24hr in | rain mn in | humidity % | barometer mb |
| 20260506112148 | 60 | 45 | 6.1 | 13.0 | 0.00 | 0.00 | 0.00 | 54 | 1009.1 |
| 20260506111149 | 60 | 90 | 5.2 | 10.4 | 0.00 | 0.00 | 0.00 | 51 | 1009.0 |
| 20260506110146 | 59 | 83 | 6.1 | 13.0 | 0.00 | 0.00 | 0.00 | 53 | 1009.1 |
| 20260506105144 | 61 | 39 | 5.2 | 12.2 | 0.00 | 0.00 | 0.00 | 53 | 1009.0 |
| 20260506103139 | 62 | 80 | 7.8 | 15.6 | 0.00 | 0.00 | 0.00 | 52 | 1009.2 |
| 20260506102140 | 60 | 48 | 7.8 | 15.6 | 0.00 | 0.00 | 0.00 | 60 | 1009.0 |
| 20260506101137 | 57 | 75 | 3.5 | 10.4 | 0.00 | 0.00 | 0.00 | 64 | 1009.0 |
| 20260506095134 | 57 | 54 | 6.1 | 9.6 | 0.00 | 0.00 | 0.00 | 65 | 1009.0 |
| 20260506094133 | 57 | 62 | 3.5 | 10.4 | 0.00 | 0.00 | 0.00 | 65 | 1008.9 |
| 20260506093130 | 57 | 44 | 2.6 | 10.4 | 0.00 | 0.00 | 0.00 | 67 | 1009.0 |
| 20260506092108 | 56 | 55 | 6.1 | 11.3 | 0.00 | 0.00 | 0.00 | 65 | 1009.0 |
| 20260506091110 | 56 | 34 | 3.5 | 10.4 | 0.00 | 0.00 | 0.00 | 65 | 1008.8 |
| 20260506085102 | 56 | 3 | 4.3 | 10.4 | 0.00 | 0.00 | 0.00 | 70 | 1008.7 |
| 20260506084058 | 55 | 37 | 4.3 | 13.9 | 0.00 | 0.00 | 0.00 | 71 | 1008.7 |
| 20260506081051 | 55 | 87 | 5.2 | 7.8 | 0.00 | 0.00 | 0.00 | 73 | 1008.6 |
| 20260506073045 | 55 | 6 | 6.1 | 10.4 | 0.00 | 0.00 | 0.00 | 73 | 1008.5 |
| 20260506072045 | 54 | 73 | 2.6 | 6.1 | 0.00 | 0.00 | 0.00 | 75 | 1008.4 |
| 20260506071042 | 54 | 48 | 2.6 | 11.3 | 0.00 | 0.00 | 0.00 | 75 | 1008.5 |
| 20260506062026 | 53 | 63 | 6.1 | 13.0 | 0.00 | 0.00 | 0.00 | 79 | 1008.3 |
| 20260506061028 | 52 | 28 | 6.1 | 10.4 | 0.00 | 0.00 | 0.00 | 80 | 1008.1 |
| 20260506050943 | 51 | 62 | 6.1 | 10.4 | 0.00 | 0.00 | 0.00 | 81 | 1008.1 |
| 20260506044947 | 51 | 31 | 4.3 | 7.8 | 0.00 | 0.00 | 0.00 | 81 | 1008.1 |
| 20260506041936 | 50 | 55 | 3.5 | 11.3 | 0.00 | 0.00 | 0.00 | 82 | 1008.2 |
| 20260506035934 | 50 | 1 | 4.3 | 10.4 | 0.00 | 0.00 | 0.00 | 82 | 1008.2 |
| 20260506034932 | 50 | 0 | 4.3 | 7.8 | 0.00 | 0.00 | 0.00 | 81 | 1008.2 |
| 20260506033934 | 50 | 18 | 1.7 | 8.7 | 0.00 | 0.00 | 0.00 | 82 | 1008.4 |
| 20260506032933 | 50 | 51 | 4.3 | 10.4 | 0.00 | 0.00 | 0.00 | 82 | 1008.3 |
| 20260506031933 | 50 | 18 | 4.3 | 8.7 | 0.00 | 0.00 | 0.00 | 82 | 1008.4 |
| 20260506030927 | 50 | 44 | 5.2 | 8.7 | 0.00 | 0.00 | 0.00 | 82 | 1008.4 |
| 20260506025927 | 50 | 41 | 3.5 | 9.6 | 0.00 | 0.00 | 0.00 | 82 | 1008.5 |
| 20260506024925 | 50 | 0 | 4.3 | 8.7 | 0.00 | 0.00 | 0.00 | 81 | 1008.4 |
| 20260506023924 | 50 | 10 | 4.3 | 9.6 | 0.00 | 0.00 | 0.00 | 81 | 1008.5 |
| 20260506022922 | 49 | 17 | 3.5 | 10.4 | 0.00 | 0.00 | 0.00 | 81 | 1008.6 |
| 20260506021917 | 49 | 55 | 5.2 | 10.4 | 0.00 | 0.00 | 0.00 | 82 | 1008.7 |
| 20260506020912 | 49 | 37 | 3.5 | 6.1 | 0.00 | 0.00 | 0.00 | 82 | 1008.7 |
| 20260506014908 | 48 | 38 | 3.5 | 6.1 | 0.00 | 0.00 | 0.00 | 82 | 1008.9 |
| 20260506013910 | 48 | 0 | 1.7 | 4.3 | 0.00 | 0.00 | 0.00 | 81 | 1009.0 |
| 20260506012905 | 48 | 355 | 1.7 | 3.5 | 0.00 | 0.00 | 0.00 | 80 | 1009.0 |
| 20260506011904 | 48 | 355 | 2.6 | 4.3 | 0.00 | 0.00 | 0.00 | 80 | 1009.0 |
| 20260506010907 | 49 | 38 | 1.7 | 5.2 | 0.00 | 0.00 | 0.00 | 80 | 1009.0 |
| 20260506004855 | 48 | 16 | 1.7 | 4.3 | 0.00 | 0.00 | 0.00 | 80 | 1009.1 |
| 20260506003855 | 48 | 34 | 2.6 | 5.2 | 0.00 | 0.00 | 0.00 | 80 | 1009.3 |
| 20260506002853 | 48 | 319 | 1.7 | 4.3 | 0.00 | 0.00 | 0.00 | 80 | 1009.4 |
| 20260506001855 | 48 | 23 | 0.9 | 4.3 | 0.00 | 0.00 | 0.00 | 80 | 1009.5 |
| 20260506000853 | 48 | 39 | 1.7 | 2.6 | 0.00 | 0.00 | 0.00 | 79 | 1009.5 |
| 20260505235853 | 48 | 38 | 1.7 | 3.5 | 0.00 | 0.00 | 0.00 | 79 | 1009.6 |
| 20260505234851 | 48 | 17 | 0.9 | 4.3 | 0.00 | 0.00 | 0.00 | 79 | 1009.8 |
| 20260505233846 | 48 | 7 | 0.9 | 3.5 | 0.00 | 0.00 | 0.00 | 78 | 1009.9 |
| 20260505231847 | 49 | 45 | 1.7 | 3.5 | 0.00 | 0.00 | 0.00 | 76 | 1010.0 |
| 20260505230844 | 49 | 31 | 1.7 | 3.5 | 0.00 | 0.00 | 0.00 | 75 | 1010.0 |
| 20260505225841 | 49 | 24 | 0.9 | 3.5 | 0.00 | 0.00 | 0.00 | 75 | 1010.0 |
| 20260505224840 | 49 | 31 | 1.7 | 3.5 | 0.00 | 0.00 | 0.00 | 75 | 1010.0 |
| 20260505223833 | 49 | 13 | 0.0 | 3.5 | 0.00 | 0.00 | 0.00 | 74 | 1010.0 |
| 20260505222835 | 49 | 35 | 2.6 | 6.1 | 0.00 | 0.00 | 0.00 | 74 | 1010.1 |
| 20260505221832 | 49 | 0 | 2.6 | 7.8 | 0.00 | 0.00 | 0.00 | 74 | 1010.1 |
| 20260505220833 | 49 | 47 | 3.5 | 6.1 | 0.00 | 0.00 | 0.00 | 74 | 1010.3 |
| 20260505215832 | 49 | 31 | 2.6 | 6.1 | 0.00 | 0.00 | 0.00 | 74 | 1010.3 |
| 20260505213833 | 49 | 49 | 1.7 | 4.3 | 0.00 | 0.00 | 0.00 | 73 | 1010.5 |
| 20260505212836 | 49 | 73 | 1.7 | 5.2 | 0.00 | 0.00 | 0.00 | 73 | 1010.5 |
| 20260505211834 | 49 | 66 | 2.6 | 4.3 | 0.00 | 0.00 | 0.00 | 72 | 1010.5 |
| 20260505210830 | 49 | 34 | 3.5 | 6.1 | 0.00 | 0.00 | 0.00 | 72 | 1010.4 |
| 20260505204819 | 50 | 37 | 3.5 | 8.7 | 0.00 | 0.00 | 0.00 | 71 | 1010.5 |
| 20260505203813 | 50 | 66 | 3.5 | 7.8 | 0.00 | 0.00 | 0.00 | 71 | 1010.4 |
| 20260505202808 | 50 | 37 | 3.5 | 7.8 | 0.00 | 0.00 | 0.00 | 71 | 1010.4 |
| 20260505201807 | 50 | 34 | 4.3 | 7.8 | 0.00 | 0.00 | 0.00 | 71 | 1010.4 |
| 20260505200806 | 50 | 63 | 3.5 | 9.6 | 0.00 | 0.00 | 0.00 | 71 | 1010.4 |
| 20260505195806 | 51 | 17 | 3.5 | 7.8 | 0.00 | 0.00 | 0.00 | 71 | 1010.3 |
| 20260505194802 | 51 | 62 | 4.3 | 11.3 | 0.00 | 0.00 | 0.00 | 70 | 1010.3 |
| 20260505193803 | 51 | 7 | 3.5 | 7.8 | 0.00 | 0.00 | 0.00 | 70 | 1010.3 |
| 20260505192802 | 51 | 32 | 3.5 | 10.4 | 0.00 | 0.00 | 0.00 | 70 | 1010.2 |
| 20260505191801 | 51 | 49 | 5.2 | 11.3 | 0.00 | 0.00 | 0.00 | 69 | 1010.3 |
| 20260505190757 | 52 | 86 | 4.3 | 7.8 | 0.00 | 0.00 | 0.00 | 68 | 1010.2 |
| 20260505185744 | 52 | 25 | 5.2 | 9.6 | 0.00 | 0.00 | 0.00 | 68 | 1010.2 |
| 20260505184745 | 52 | 55 | 5.2 | 13.0 | 0.00 | 0.00 | 0.00 | 68 | 1010.0 |
| 20260505182737 | 52 | 37 | 7.0 | 12.2 | 0.00 | 0.00 | 0.00 | 67 | 1010.0 |
| 20260505181737 | 53 | 42 | 6.1 | 16.5 | 0.00 | 0.00 | 0.00 | 65 | 1010.1 |
| 20260505180735 | 53 | 28 | 7.8 | 12.2 | 0.00 | 0.00 | 0.00 | 65 | 1010.1 |
| 20260505175733 | 53 | 35 | 7.0 | 13.0 | 0.00 | 0.00 | 0.00 | 66 | 1010.1 |
| 20260505173733 | 54 | 350 | 5.2 | 12.2 | 0.00 | 0.00 | 0.00 | 64 | 1010.1 |
| 20260505172732 | 54 | 0 | 6.1 | 12.2 | 0.00 | 0.00 | 0.00 | 63 | 1010.1 |
| 20260505171736 | 55 | 1 | 7.0 | 13.0 | 0.00 | 0.00 | 0.00 | 64 | 1010.1 |
| 20260505170733 | 55 | 32 | 5.2 | 11.3 | 0.00 | 0.00 | 0.00 | 64 | 1010.1 |
| 20260505165732 | 55 | 35 | 6.1 | 13.9 | 0.00 | 0.00 | 0.00 | 65 | 1010.2 |
| 20260505164732 | 55 | 73 | 7.0 | 13.0 | 0.00 | 0.00 | 0.00 | 65 | 1010.2 |
| 20260505162728 | 56 | 38 | 7.8 | 14.8 | 0.00 | 0.00 | 0.00 | 64 | 1010.2 |
| 20260505161707 | 56 | 13 | 6.1 | 12.2 | 0.00 | 0.00 | 0.00 | 64 | 1010.1 |
| 20260505152655 | 58 | 32 | 7.8 | 13.0 | 0.00 | 0.00 | 0.00 | 60 | 1010.1 |
| 20260505151653 | 58 | 55 | 3.5 | 13.9 | 0.00 | 0.00 | 0.00 | 60 | 1010.0 |
| 20260505150645 | 58 | 18 | 5.2 | 13.0 | 0.00 | 0.00 | 0.00 | 59 | 1010.1 |
| 20260505140638 | 61 | 80 | 7.0 | 13.0 | 0.00 | 0.00 | 0.00 | 55 | 1010.4 |
| 20260505124632 | 63 | 49 | 6.1 | 12.2 | 0.00 | 0.00 | 0.00 | 50 | 1010.7 |
| 20260505123633 | 63 | 65 | 4.3 | 9.6 | 0.00 | 0.00 | 0.00 | 51 | 1010.6 |
| 20260505122634 | 63 | 344 | 6.1 | 11.3 | 0.00 | 0.00 | 0.00 | 50 | 1010.7 |
| 20260505121631 | 63 | 23 | 3.5 | 10.4 | 0.00 | 0.00 | 0.00 | 52 | 1010.6 |
| 20260505120633 | 62 | 54 | 1.7 | 11.3 | 0.00 | 0.00 | 0.00 | 52 | 1010.6 |
| 20260505115632 | 62 | 28 | 4.3 | 11.3 | 0.00 | 0.00 | 0.00 | 53 | 1010.7 |
| 20260505114631 | 63 | 54 | 4.3 | 9.6 | 0.00 | 0.00 | 0.00 | 51 | 1010.7 |
| 20260505113633 | 62 | 0 | 7.8 | 13.9 | 0.00 | 0.00 | 0.00 | 53 | 1010.8 |